Hourly Data Report for April 28, 2021

KUGAARUK CLIMATE
NUNAVUT
Current Station Operator: ECCC - MSC

68°32'15.060" N
89°47'47.020" W
15.80 m
2303094
71407
NBB

Download Data

Hourly Data (April 2021)
Hourly Data Report for April 28, 2021
TIME
LST
Temp Definition
°C
Dew Point Definition
°C
Rel Hum Definition
%
Precip. Amount Definition
mm

Wind Dir Definition
10's deg

Wind Spd Definition
km/h
Visibility Definition
km
Stn Press Definition
kPa
Hmdx Definition


Wind Chill Definition


Weather Definition


00:00 -9.4 -11.1 87 0.0 8 31   101.71   -19 LegendNANA
01:00 -10.6 -12.2 88 0.0 8 31   101.68   -20 LegendNANA
02:00 -9.3 -11.0 87 0.0 8 34   101.68   -19 LegendNANA
03:00 -9.3 -11.1 86 0.0 7 28   101.66   -18 LegendNANA
04:00 -8.3 -10.3 85 0.0 7 29   101.60   -17 LegendNANA
05:00 -6.5 -9.2 81 0.0 10 40   101.52   -16 LegendNANA
06:00 -6.3 -8.7 83 0.0 7 35   101.47   -15 LegendNANA
07:00 -6.3 -9.0 81 0.0 6 33   101.44   -15 LegendNANA
08:00 -6.1 -8.7 82 0.0 7 33   101.35   -15 LegendNANA
09:00 -5.5 -8.3 81 0.0 7 38   101.27   -15 LegendNANA
10:00 -5.2 -8.0 81 0.0 7 33   101.21   -14 LegendNANA
11:00 -4.1 -7.1 80 0.0 8 34   101.14   -12 LegendNANA
12:00 -4.3 -6.4 85 0.0 9 43   101.09   -13 LegendNANA
13:00 -4.6 -6.5 87 0.0 8 42   101.04   -14 LegendNANA
14:00 -4.5 -6.4 86 0.0 9 38   101.01   -13 LegendNANA
15:00 -4.6 -6.4 87 0.0 10 30   101.02   -12 LegendNANA
16:00 -8.5 -10.9 83 0.0 21 30   101.09   -18 LegendNANA
17:00 -10.6 -13.4 79 0.0 23 28   101.19   -20 LegendNANA
18:00 -11.2 -15.9 69 0.0 22 26   101.26   -20 LegendNANA
19:00 -12.7 -17.1 69 0.0 21 17   101.32   -21 LegendNANA
20:00 -12.6 -16.9 70 0.0 19 29   101.36   -23 LegendNANA
21:00 -13.2 -17.6 70 0.0 18 23   101.43   -23 LegendNANA
22:00 -13.4 -17.6 71 0.0 17 24   101.46   -23 LegendNANA
23:00 -13.2 -17.1 73 0.0 18 24   101.53   -23 LegendNANA

Notes on Data Quality.

Legend

  • E = Estimated
  • M = Missing
  • NA = Not Available*
  • [empty] = Indicates an unobserved value
Date modified: